[[{"header":{"parameterUnit":"m.s-1","parameterCategory":1,"la1":30.2991,"la2":30.254,"lo1":-89.0895,"lo2":-89.0444,"dy":0.0017,"dx":0.0017,"nx":28,"ny":28,"refTime":"2024-07-28T03:00:00:Z","depth":0,"parameterNumber":2,"parameterNumberName":"U-component_of_WINDS"},"data":[0,0,0,0,0,0,0,0,0,0,0,0,0,0,0,0,0,0,0,0,0,0,0,0,0,0,0,0,0,0,0,0,0,0,0,0,0,0,0,0,0,0,0,0,0,0,0,0,0,0,0,0,0,0,0,0,0,0,2.9791,2.9792,0,2.9845,2.9845,2.9846,2.9799,2.9797,2.9795,2.9793,2.9847,2.9851,2.9854,0,0,0,0,0,0,0,0,0,0,0,0,0,2.9646,2.9649,2.9791,2.9792,2.9793,2.9845,2.9845,2.9846,2.9799,2.9797,2.9794,2.9792,2.9846,2.985,2.9854,0,0,0,0,0,0,0,0,0,0,0,0,0,2.9705,2.965,2.9791,2.9775,2.9774,2.9844,2.9845,2.9846,2.98,2.9797,2.9794,2.9791,2.9845,2.985,2.9855,2.9943,0,0,2.9869,2.9872,0,0,0,0,0,0,0,0,2.9702,2.9711,2.9777,2.9777,2.9776,2.9812,2.9814,2.9879,2.98,2.979,2.9793,2.979,2.9838,2.9843,2.986,2.9945,2.9948,2.987,2.9873,2.9875,2.9876,0,0,0,0,0,0,0,2.9698,2.9708,2.9812,2.9778,2.9777,2.9765,2.977,2.9826,2.983,2.9791,2.9787,2.9794,2.9837,2.9855,2.9861,2.9948,2.987,2.9874,2.9877,2.9879,3.0105,3.0108,0,0,0,0,0,0,2.9696,2.9705,2.9811,2.9814,2.9731,2.977,2.9776,2.9803,2.9829,2.983,2.9797,2.9792,2.9848,2.9855,2.9862,2.9964,2.9875,2.988,2.9882,3.0102,3.0106,3.0109,0,0,0,0,0,0,2.9693,2.9706,2.9808,2.9759,2.9771,2.9775,2.9807,2.9806,2.9824,2.9833,2.9834,2.9815,2.9846,2.9855,2.9922,2.9965,2.9882,2.9886,3.0098,3.0103,3.0107,3.017,0,0,0,0,0,0,2.9689,2.9705,2.9739,2.976,2.9774,2.9868,2.981,2.9809,2.9832,2.9827,2.985,2.9851,2.9845,2.9915,2.9927,2.997,2.989,3.0094,3.01,3.0106,3.0164,3.0176,3.0186,0,0,0,0,0,2.9684,2.9755,2.9741,2.9754,2.9816,2.9871,2.9879,2.9869,2.9836,2.987,2.9875,2.9851,2.9959,2.9922,2.9935,2.9981,3.0092,3.0099,3.0105,3.0159,3.0173,3.0186,0,0,0,0,0,0,2.974,2.9758,2.9742,2.9823,2.9845,2.9863,2.9905,2.9886,2.9919,2.9912,2.9899,2.9905,2.9975,2.9985,2.9944,3.0065,3.002,3.003,3.0056,3.007,3.0081,3.0076,2.9894,0,0,0,0,0,2.9762,2.9805,2.9818,2.9888,2.99,2.9901,2.9924,2.9915,2.9938,2.9947,2.9958,2.9981,3.002,3.0046,3.0083,3.0166,3.0168,3.0203,3.0215,3.0224,3.0231,3.0272,3.0287,3.0132,3.0132,3.0131,0,0,2.9807,2.9822,2.985,2.9899,2.9916,2.9959,2.9909,2.9958,2.999,2.9955,3.0017,3.0026,3.0051,3.0125,3.0159,3.0136,3.0275,3.0233,3.024,3.0243,3.0281,3.0296,3.0309,3.0136,3.0135,3.0135,0,0,2.9911,2.9928,2.9986,3.0003,3.0029,3.0029,3.0043,3.0063,3.0067,3.013,3.0103,3.0141,3.0209,3.0226,3.0245,3.0353,3.033,3.0366,3.0423,3.0463,3.0475,3.0486,3.0521,3.0535,3.0374,3.0374,3.0374,0,2.9963,3.0028,3.0018,3.0068,3.0089,3.0059,3.0117,3.0134,3.0171,3.0185,3.016,3.0242,3.0258,3.0334,3.036,3.0377,3.039,3.0362,3.0475,3.0485,3.0495,3.0529,3.0542,3.0378,3.0378,3.0377,3.0377,0,3.009,3.0136,3.0179,3.0214,3.024,3.0294,3.029,3.0318,3.0307,3.0309,3.0372,3.0388,3.0426,3.0444,3.0434,3.0518,3.0503,3.0477,3.043,3.0514,3.0545,3.0558,3.0383,3.0382,3.0381,3.038,0,0,3.023,3.0257,3.0273,3.0287,3.0312,3.0347,3.0398,3.0435,3.0457,3.0484,3.0525,3.0582,3.0557,3.0577,3.0569,3.0605,3.0685,3.0573,3.0574,3.059,3.0775,3.0792,3.0807,3.0671,3.0674,3.0676,3.0771,0,3.0332,3.0421,3.0412,3.0496,3.0536,3.0508,3.0552,3.0572,3.0575,3.0609,3.0613,3.0652,3.0618,3.0629,3.0664,3.0668,3.0721,3.0661,3.0707,3.0708,3.0698,3.0824,3.0843,3.0933,3.0784,3.0786,3.0788,0,3.0463,3.0491,3.0579,3.0596,3.0612,3.0652,3.0683,3.0717,3.0738,3.0738,3.076,3.0744,3.0794,3.0748,3.0816,3.0775,3.0793,3.0798,3.0801,3.0803,3.0751,3.0825,3.0961,3.0973,3.0807,3.0806,3.0804,0,3.0551,3.0613,3.0672,3.0685,3.0707,3.0735,3.0746,3.0764,3.0785,3.0813,3.0826,3.086,3.0878,3.0903,3.0897,3.0865,3.0964,3.0919,3.0963,3.0963,3.0983,3.0981,3.112,3.1001,3.1001,3.1,3.1,0,3.0663,3.0717,3.0711,3.0748,3.0806,3.0796,3.0854,3.0861,3.0877,3.0913,3.0892,3.0926,3.0917,3.095,3.0946,3.1,3.1009,3.1009,3.1006,3.1009,3.1008,3.1018,3.101,3.1004,3.1003,3.1002,3.1002,0,3.0771,3.077,3.0832,3.0847,3.0852,3.0894,3.0907,3.094,3.0941,3.0987,3.0997,3.0999,3.1037,3.1033,3.1077,3.1073,3.114,3.1132,3.1132,3.1129,3.1172,3.1167,3.132,3.1338,3.121,3.1211,3.1212,0,3.0841,3.0882,3.0901,3.0923,3.0935,3.0972,3.0993,3.0984,3.1007,3.1033,3.1063,3.1099,3.1127,3.1188,3.1193,3.1225,3.1216,3.1267,3.122,3.122,3.1212,3.1208,3.1211,3.1275,3.1277,3.1278,3.1279,0,3.0965,3.0962,3.0993,3.1025,3.1051,3.1075,3.1097,3.1116,3.1109,3.1136,3.1174,3.1196,3.1239,3.1274,3.1304,3.1314,3.1294,3.1294,3.1305,3.1306,3.1303,3.1302,3.1153,3.129,3.1289,3.1288,3.1287,3.1287,3.1053,3.1087,3.1104,3.114,3.1155,3.1176,3.1207,3.1211,3.1243,3.1277,3.127,3.1312,3.133,3.1368,3.1381,3.1413,3.1394,3.1411,3.1415,3.1419,3.1422,3.1301,3.1419,3.1419,3.1418,3.1418,3.1418,0,3.1172,3.1182,3.1215,3.1245,3.1273,3.1253,3.1276,3.13,3.1337,3.1355,3.1383,3.1425,3.1459,3.1466,3.1497,3.1521,3.1513,3.1529,3.1526,3.1528,3.1439,3.1424,3.1535,3.1535,3.1535,3.1535,3.1535,3.1535,3.1237,3.1291,3.129,3.1351,3.136,3.1401,3.1415,3.1433,3.1447,3.1495,3.1523,3.1527,3.154,3.1572,3.1601,3.1602,3.1613,3.1633,3.163,3.1546,3.1534,3.1523,3.1509,3.1636,3.1636,3.1716,3.1717,3.1717]},{"header":{"parameterUnit":"m.s-1","parameterCategory":1,"la1":30.2991,"la2":30.254,"lo1":-89.0895,"lo2":-89.0444,"dy":0.0017,"dx":0.0017,"nx":28,"ny":28,"refTime":"2024-07-28T03:00:00:Z","depth":0,"parameterNumber":3,"parameterNumberName":"V-component_of_WINDS"},"data":[0,0,0,0,0,0,0,0,0,0,0,0,0,0,0,0,0,0,0,0,0,0,0,0,0,0,0,0,0,0,0,0,0,0,0,0,0,0,0,0,0,0,0,0,0,0,0,0,0,0,0,0,0,0,0,0,0,0,2.8324,2.8326,0,2.8468,2.8469,2.8471,2.8463,2.8461,2.8459,2.8457,2.8604,2.861,2.8616,0,0,0,0,0,0,0,0,0,0,0,0,0,2.8043,2.8048,2.8324,2.8326,2.8328,2.8467,2.8469,2.8471,2.8464,2.8461,2.8459,2.8457,2.8602,2.8609,2.8616,0,0,0,0,0,0,0,0,0,0,0,0,0,2.8174,2.805,2.8324,2.8341,2.8344,2.8467,2.8469,2.8472,2.8464,2.8461,2.8458,2.8455,2.86,2.8609,2.8617,2.8733,0,0,2.8644,2.8648,0,0,0,0,0,0,0,0,2.8166,2.8184,2.8337,2.834,2.8343,2.8445,2.8424,2.8559,2.8465,2.8419,2.8457,2.8454,2.8554,2.8566,2.86,2.874,2.8746,2.8645,2.865,2.8654,2.8656,0,0,0,0,0,0,0,2.8157,2.8178,2.8381,2.8339,2.8343,2.8341,2.8356,2.845,2.8502,2.8422,2.8422,2.8439,2.8555,2.8591,2.8603,2.8748,2.8644,2.8652,2.8658,2.8661,2.8989,2.8992,0,0,0,0,0,0,2.8144,2.817,2.8376,2.8385,2.8245,2.8349,2.8366,2.8415,2.8501,2.8511,2.8442,2.8438,2.8578,2.8593,2.8608,2.8748,2.8654,2.8662,2.8667,2.8985,2.899,2.8993,0,0,0,0,0,0,2.8138,2.8163,2.8371,2.8278,2.8304,2.8357,2.8413,2.842,2.8456,2.8515,2.8524,2.8469,2.8576,2.8596,2.8702,2.8753,2.8666,2.8674,2.8981,2.8987,2.8991,2.903,0,0,0,0,0,0,2.813,2.8161,2.8206,2.8279,2.8309,2.8462,2.8416,2.8425,2.8471,2.8468,2.8544,2.8553,2.8575,2.8689,2.871,2.8764,2.8681,2.8977,2.8984,2.899,2.9025,2.9036,2.9046,0,0,0,0,0,2.812,2.8211,2.8208,2.8233,2.8366,2.8465,2.8482,2.8506,2.8475,2.8521,2.8558,2.8551,2.8744,2.8699,2.8724,2.8781,2.8974,2.8982,2.8989,2.902,2.9034,2.9046,0,0,0,0,0,0,2.8143,2.8221,2.8218,2.8336,2.8394,2.8464,2.8522,2.852,2.8588,2.8583,2.8608,2.8626,2.8731,2.8767,2.8716,2.8896,2.8855,2.8868,2.887,2.8884,2.8894,2.8884,2.8688,0,0,0,0,0,2.8162,2.8236,2.83,2.8397,2.8426,2.8469,2.8513,2.8526,2.8587,2.8612,2.8657,2.8717,2.8791,2.8839,2.8911,2.9029,2.9045,2.908,2.9091,2.91,2.9111,2.9175,2.9191,2.9019,2.9019,2.9019,0,0,2.8201,2.8253,2.8298,2.8403,2.8449,2.8525,2.849,2.8572,2.8628,2.8624,2.8727,2.8762,2.883,2.8942,2.8994,2.8975,2.9162,2.911,2.9116,2.9123,2.9185,2.9201,2.9216,2.9024,2.9023,2.9022,0,0,2.8312,2.8358,2.8444,2.8491,2.8562,2.8589,2.861,2.868,2.8703,2.8806,2.8805,2.8871,2.8999,2.9047,2.9088,2.9215,2.921,2.9238,2.9294,2.9356,2.937,2.9382,2.9427,2.9443,2.9248,2.9248,2.9249,0,2.8352,2.8466,2.8488,2.8571,2.8616,2.8616,2.8702,2.8747,2.8837,2.8869,2.8846,2.9004,2.905,2.9174,2.9204,2.9238,2.9262,2.9229,2.9366,2.9378,2.939,2.9433,2.945,2.9251,2.9251,2.9251,2.925,0,2.8511,2.859,2.8651,2.8738,2.879,2.8874,2.8909,2.8959,2.8967,2.8997,2.9101,2.9156,2.9238,2.9268,2.9277,2.9392,2.9378,2.936,2.9319,2.9409,2.945,2.9466,2.9255,2.9254,2.9253,2.9253,0,0,2.8642,2.8738,2.876,2.8799,2.8876,2.8938,2.9021,2.9101,2.9143,2.9205,2.9275,2.9382,2.9366,2.9413,2.9427,2.9482,2.9578,2.9457,2.9459,2.9477,2.9707,2.972,2.9739,2.9575,2.9578,2.958,2.9701,0,2.876,2.8908,2.8929,2.906,2.9133,2.9132,2.9205,2.9259,2.9289,2.9355,2.9387,2.9462,2.9435,2.9463,2.9518,2.9554,2.9624,2.9546,2.964,2.9643,2.9623,2.976,2.9775,2.9886,2.9718,2.972,2.9722,0,2.8918,2.8983,2.9121,2.9187,2.9218,2.9283,2.9357,2.942,2.9482,2.9499,2.9551,2.9557,2.9643,2.9598,2.9716,2.9662,2.9701,2.9725,2.973,2.974,2.9688,2.9774,2.9923,2.9939,2.9748,2.9746,2.9744,0,2.8998,2.9121,2.9219,2.9252,2.9331,2.9377,2.9412,2.9471,2.9517,2.9582,2.9612,2.9686,2.9726,2.9783,2.9809,2.9774,2.9925,2.9882,2.9942,2.9941,2.9974,2.9972,3.0132,3.0,2.9999,2.9999,2.9999,0,2.9128,2.9212,2.9256,2.9316,2.9409,2.9433,2.9525,2.9559,2.9611,2.9677,2.9681,2.9743,2.9774,2.9841,2.9862,2.9956,2.9974,2.9991,2.9995,2.999,2.9988,3.0017,3.001,3.0004,3.0003,3.0002,3.0001,0,2.9234,2.9267,2.9373,2.9439,2.9458,2.9524,2.958,2.9638,2.9667,2.975,2.9771,2.9816,2.9895,2.9926,3.0023,3.0037,3.0145,3.0143,3.0124,3.0125,3.0183,3.0177,3.0367,3.0393,3.0244,3.0245,3.0246,0,2.9315,2.9379,2.9452,2.9496,2.9533,2.9605,2.9651,2.9677,2.9726,2.98,2.9849,2.9927,2.9991,3.0116,3.0157,3.023,3.0231,3.0292,3.0242,3.0234,3.0231,3.0227,3.0233,3.0301,3.0303,3.0304,3.0305,0,2.9454,2.9467,2.9534,2.9607,2.9663,2.9722,2.9779,2.9815,2.9849,2.9903,2.9983,3.0033,3.0131,3.0208,3.0283,3.0319,3.0318,3.032,3.0338,3.0334,3.032,3.0328,3.0149,3.0316,3.0315,3.0314,3.0314,3.0313,2.955,2.9607,2.9666,2.9741,2.9787,2.984,2.9897,2.9932,2.9999,3.0081,3.0092,3.0177,3.0236,3.0337,3.0375,3.0442,3.0427,3.0452,3.0459,3.0465,3.0468,3.0309,3.0456,3.0456,3.0456,3.0455,3.0455,0,2.9689,2.9727,2.9796,2.9875,2.9934,2.9927,2.9989,3.0039,3.0114,3.0169,3.0231,3.0323,3.0397,3.0444,3.0519,3.0563,3.0565,3.0582,3.0579,3.0587,3.0479,3.0456,3.058,3.058,3.058,3.058,3.058,3.058,2.9769,2.9864,2.9884,3.0002,3.0039,3.0123,3.0159,3.0207,3.0251,3.0353,3.0415,3.0444,3.0496,3.0574,3.0642,3.0654,3.0681,3.07,3.071,3.0608,3.0595,3.0583,3.0561,3.0706,3.0706,3.0813,3.0814,3.0815]}]]